Simultaneous Nadir Overpasses (SNOs) Predictions

Prediction of SNOs between FY3D and NOAA-19 Satellite Orbit:

Table of predicted SNOs for the next 14.0 days since TLE Epoch: 10/15/2022
Index Date (FY3D) Time (FY3D) Lat,Lon (FY3D) SZA (FY3D ) Date (NOAA-19) Time (NOAA-19) Lat,Lon (NOAA-19) SZA (NOAA-19 ) Distance(km) Time Diff (sec)
1 10/16/2022 04:57:23 77.08, 91.90 86.08 10/16/2022 04:56:10 77.03, 91.08 86.08 21.25 73
2 10/16/2022 05:48:10 -77.16,-101.13 93.82 10/16/2022 05:47:03 -77.13,-101.19 93.83 3.27 67
3 10/16/2022 06:38:56 77.15, 66.20 86.19 10/16/2022 06:38:07 77.14, 66.09 86.20 2.94 49
4 10/16/2022 07:29:41 -77.15,-126.46 93.81 10/16/2022 07:29:02 -77.16,-126.56 93.78 2.80 39
5 10/16/2022 08:20:28 77.18, 40.68 86.26 10/16/2022 08:20:06 77.17, 40.73 86.24 1.91 22
6 10/16/2022 09:11:13 -77.18,-151.98 93.74 10/16/2022 09:11:01 -77.19,-151.92 93.73 1.83 12
7 10/16/2022 10:01:59 77.17, 15.35 86.27 10/16/2022 10:02:05 77.20, 15.37 86.29 2.89 6
8 10/16/2022 10:52:45 -77.21,-177.50 93.68 10/16/2022 10:53:01 -77.18,-177.48 93.72 3.87 16
9 10/16/2022 11:43:31 77.21, -10.17 86.33 10/16/2022 11:44:05 77.19, -10.19 86.31 2.12 34
10 10/16/2022 12:34:16 -77.20, 157.17 93.67 10/16/2022 12:35:00 -77.20, 157.16 93.67 0.55 44
11 10/16/2022 13:25:02 77.19, -35.50 86.34 10/16/2022 13:26:04 77.22, -35.55 86.36 2.59 62
12 10/16/2022 14:15:48 -77.23, 131.65 93.61 10/16/2022 14:16:59 -77.23, 131.80 93.62 3.65 71



Historial Predications of SNOs between FY3D and NOAA-19
